Weather observations for the past three days for
Franklin County Airport
Imperial (Metric)
Date Time (edt) Wind (mph) Vis. (mi.) Weather Sky Cond. Temperature (ºF) Relative Humidity Wind Chill (°F) Heat Index (°F) Pressure Precipitation (in)
Air Dwpt 6 hour altimeter (in) sea level (mb) 1 hr 3 hr 6 hr
Max. Min.
17 19:45 Calm 5.00 Fair with Haze CLR 82.4 64.4 55% 84 30.16 0.0
17 19:25 SE 3 7.00 Fair CLR 82.4 64.4 55% 84 30.15 0.0
17 19:05 SE 6 7.00 Partly Cloudy SCT048 SCT055 86 64.4 49% 87 30.14 0.0
17 18:45 S 8 7.00 Partly Cloudy SCT048 86 66.2 52% 88 30.15 0.0
17 18:25 SE 6 7.00 Partly Cloudy SCT050 SCT060 86 66.2 52% 88 30.14 0.0
17 18:05 S 6 7.00 Partly Cloudy SCT060 87.8 66.2 49% 90 30.14 0.0
17 17:45 S 7 10.00 Fair CLR 86 66.2 52% 88 30.15 0.0
17 17:25 SE 6 7.00 Fair CLR 84.2 66.2 55% 87 30.16 0.0
17 17:05 SE 6 7.00 Partly Cloudy SCT060 87.8 66.2 49% 90 30.17 0.0
17 16:45 S 6 7.00 Overcast OVC060 86 68 55% 89 30.17 0.0
17 16:25 S 7 7.00 Mostly Cloudy SCT044 BKN060 86 68 55% 89 30.18 0.0
17 16:05 S 6 7.00 Partly Cloudy SCT044 SCT060 SCT085 87.8 68 52% 91 30.19 0.0
17 15:45 S 5 7.00 Partly Cloudy SCT046 SCT085 86 68 55% 89 30.19 0.0
17 15:25 S 3 7.00 Partly Cloudy SCT060 86 68 55% 89 30.19 0.0
17 15:05 SE 5 5.00 Mostly Cloudy with Haze SCT043 BKN060 86 66.2 52% 88 30.2 0.0
17 14:45 Calm 10.00 Mostly Cloudy SCT041 BKN060 86 66.2 52% 88 30.2 0.0
17 14:25 Calm 10.00 Overcast BKN041 OVC050 86 68 55% 89 30.21 0.0
17 14:00 E 5 10.00 Overcast SCT039 OVC050 86 66.2 52% 88 30.22 0.0
17 13:45 SE 6 10.00 Overcast SCT043 OVC050 86 66.2 52% 88 30.22 0.0
17 13:25 SW 6 10.00 Overcast BKN045 OVC050 82.4 64.4 55% 84 30.22 0.0
17 13:05 S 6 10.00 Overcast OVC043 82.4 64.4 55% 84 30.23 0.0
17 12:45 S 8 10.00 Overcast OVC043 82.4 64.4 55% 84 30.23 0.0
17 12:25 S 5 10.00 Overcast OVC041 82.4 64.4 55% 84 30.23 0.0
17 12:05 S 3 10.00 Mostly Cloudy SCT032 BKN041 84.2 66.2 55% 87 30.23 0.0
17 11:45 S 8 10.00 Overcast SCT032 OVC039 82.4 66.2 58% 85 30.24 0.0
17 11:25 S 6 10.00 Partly Cloudy SCT030 SCT039 82.4 68 62% 85 30.24 0.0
17 11:05 S 6 10.00 Fair CLR 80.6 66.2 62% 83 30.25 0.0
17 10:45 SW 6 10.00 Partly Cloudy SCT043 80.6 66.2 62% 83 30.25 0.0
17 10:25 S 7 10.00 Partly Cloudy SCT043 SCT049 78.8 66.2 65% 81 30.25 0.0
17 10:05 SW 7 10.00 Mostly Cloudy BKN045 77 66.2 69% 79 30.25 0.0
17 09:45 S 9 10.00 Overcast OVC044 77 66.2 69% 79 30.25 0.0
17 09:25 S 7 10.00 Mostly Cloudy SCT042 BKN050 BKN065 77 66.2 69% 79 30.26 0.0
17 09:00 S 6 10.00 Mostly Cloudy SCT046 BKN055 75.2 66.2 74% 77 30.26 0.0
17 08:45 S 7 10.00 Partly Cloudy SCT055 73.4 66.2 78% 30.26 0.0
17 08:25 S 5 10.00 Partly Cloudy SCT055 73.4 64.4 74% 30.25 0.0
17 08:05 S 3 10.00 Partly Cloudy SCT095 71.6 64.4 78% 30.25 0.0
17 07:45 Calm 10.00 Partly Cloudy SCT065 SCT095 69.8 62.6 78% 30.25 0.0
17 07:25 Calm 10.00 Mostly Cloudy SCT065 BKN095 68 62.6 83% 30.25 0.0
17 07:05 Calm 10.00 Mostly Cloudy BKN085 68 62.6 83% 30.25 0.0
17 06:45 Calm 10.00 Mostly Cloudy SCT065 BKN085 64.4 62.6 94% 30.24 0.0
17 06:25 Calm 10.00 Overcast SCT075 OVC085 64.4 60.8 88% 30.24 0.0
17 06:05 Calm 10.00 Mostly Cloudy SCT075 BKN085 64.4 60.8 88% 30.23 0.0
17 05:45 S 3 10.00 Mostly Cloudy SCT075 BKN085 64.4 60.8 88% 30.22 0.0
17 05:25 Calm 10.00 Partly Cloudy SCT085 64.4 60.8 88% 30.22 0.0
17 05:05 Calm 10.00 Mostly Cloudy BKN085 64.4 60.8 88% 30.22 0.0
17 04:45 Calm 10.00 Partly Cloudy SCT085 64.4 60.8 88% 30.22 0.0
17 04:25 Calm 10.00 Fair CLR 64.4 60.8 88% 30.22 0.0
17 04:05 Calm 10.00 Fair CLR 64.4 60.8 88% 30.22 0.0
17 03:45 Calm 10.00 Fair CLR 64.4 60.8 88% 30.21 0.0
17 03:25 Calm 10.00 Fair CLR 64.4 60.8 88% 30.21 0.0
17 03:05 Calm 10.00 Fair CLR 64.4 60.8 88% 30.21 0.0
17 02:45 Calm 10.00 Fair CLR 66.2 60.8 83% 30.22 0.0
17 02:25 Calm 10.00 Fair CLR 66.2 60.8 83% 30.22 0.0
17 02:05 Calm 10.00 Fair CLR 69.8 60.8 73% 30.22 0.0
17 01:45 S 3 10.00 Partly Cloudy SCT065 69.8 60.8 73% 30.22 0.0
17 01:25 S 3 10.00 Partly Cloudy SCT065 SCT075 68 59 73% 30.23 0.0
17 01:05 S 3 10.00 Partly Cloudy SCT075 69.8 59 69% 30.23 0.0
17 00:45 S 5 10.00 Partly Cloudy SCT060 69.8 59 69% 30.22 0.0
17 00:25 S 3 10.00 Fair CLR 71.6 59 65% 30.22 0.0
17 00:05 SE 5 10.00 Fair CLR 71.6 57.2 61% 30.22 0.0
16 23:45 SE 3 10.00 Fair CLR 71.6 57.2 61% 30.21 0.0
16 23:25 SE 5 10.00 Partly Cloudy SCT070 73.4 57.2 57% 30.2 0.0
16 22:45 SE 6 10.00 Mostly Cloudy BKN070 75.2 55.4 50% 78 30.2 0.0
16 22:25 E 7 10.00 Overcast OVC060 77 55.4 47% 79 30.19 0.0
16 22:05 E 5 10.00 Overcast OVC060 77 57.2 51% 79 30.19 0.0
16 21:45 E 6 10.00 Mostly Cloudy BKN070 77 57.2 51% 79 30.19 0.0
16 21:25 E 6 10.00 Partly Cloudy SCT070 77 59 54% 79 30.18 0.0
16 21:05 E 5 10.00 Partly Cloudy SCT070 77 59 54% 79 30.17 0.0
16 20:45 SE 5 10.00 Fair CLR 78.8 59 51% 80 30.17 0.0
16 20:25 E 5 10.00 Partly Cloudy SCT070 SCT100 78.8 59 51% 80 30.17 0.0
16 20:05 E 5 10.00 Mostly Cloudy SCT080 BKN110 80.6 60.8 51% 81 30.16 0.0
16 19:45 E 6 10.00 Mostly Cloudy BKN090 BKN110 80.6 59 48% 81 30.17 0.0
16 19:25 E 3 10.00 Overcast OVC090 80.6 60.8 51% 81 30.17 0.0
16 19:05 SE 5 10.00 Mostly Cloudy BKN090 82.4 59 45% 82 30.17 0.0
16 18:45 E 6 10.00 Partly Cloudy SCT090 82.4 59 45% 82 30.16 0.0
16 18:25 E 5 10.00 Partly Cloudy SCT090 86 59 40% 85 30.16 0.0
16 18:05 E 6 10.00 Mostly Cloudy BKN090 BKN120 84.2 59 43% 84 30.17 0.0
16 17:45 E 7 10.00 Partly Cloudy SCT090 SCT120 86 59 40% 85 30.17 0.0
16 17:25 SE 5 10.00 Mostly Cloudy BKN090 84.2 59 43% 84 30.17 0.0
16 17:05 SE 7 10.00 Partly Cloudy SCT090 84.2 57.2 40% 83 30.17 0.0
16 16:45 SE 7 10.00 Partly Cloudy SCT090 86 57.2 38% 85 30.17 0.0
16 16:05 SE 8 10.00 Partly Cloudy SCT090 86 59 40% 85 30.18 0.0
16 15:45 S 7 10.00 Partly Cloudy SCT090 SCT120 86 59 40% 85 30.19 0.0
16 15:25 SE 7 10.00 Partly Cloudy SCT090 SCT110 84.2 59 43% 84 30.19 0.0
16 15:05 S 7 10.00 Mostly Cloudy SCT085 BKN095 82.4 59 45% 82 30.2 0.0
16 14:45 S 7 10.00 Partly Cloudy SCT085 SCT095 82.4 59 45% 82 30.2 0.0
16 14:25 SE 8 10.00 Partly Cloudy SCT085 84.2 57.2 40% 83 30.2 0.0
16 14:05 E 5 10.00 Mostly Cloudy BKN085 86 57.2 38% 85 30.2 0.0
16 13:45 SE 5 10.00 Partly Cloudy SCT095 86 57.2 38% 85 30.21 0.0
16 13:25 SE 5 10.00 Partly Cloudy SCT095 84.2 55.4 37% 83 30.21 0.0
16 13:05 E 10 G 16 10.00 Partly Cloudy SCT095 86 57.2 38% 85 30.21 0.0
16 12:45 E 8 10.00 Partly Cloudy SCT095 86 57.2 38% 85 30.21 0.0
16 12:25 E 8 10.00 Fair CLR 84.2 57.2 40% 83 30.22 0.0
16 12:05 E 9 10.00 Fair CLR 82.4 57.2 42% 82 30.22 0.0
16 11:45 E 10 10.00 Fair CLR 82.4 57.2 42% 82 30.22 0.0
16 11:25 E 8 10.00 Fair CLR 82.4 57.2 42% 82 30.22 0.0
16 11:05 SE 8 10.00 Partly Cloudy SCT090 82.4 57.2 42% 82 30.22 0.0
16 10:45 E 8 10.00 Partly Cloudy SCT090 80.6 57.2 45% 81 30.22 0.0
16 10:25 E 8 10.00 Fair CLR 80.6 57.2 45% 81 30.22 0.0
16 10:05 E 8 10.00 Fair CLR 78.8 57.2 48% 80 30.22 0.0
16 09:45 E 8 10.00 Fair CLR 78.8 55.4 45% 79 30.22 0.0
16 09:25 E 7 10.00 Fair CLR 77 57.2 51% 79 30.22 0.0
16 09:05 E 8 10.00 Fair CLR 75.2 59 57% 78 30.22 0.0
16 08:45 E 7 5.00 Fair with Haze CLR 73.4 60.8 65% 30.21 0.0
16 08:25 E 8 10.00 Fair CLR 71.6 62.6 73% 30.2 0.0
16 08:05 NE 3 10.00 Fair CLR 69.8 62.6 78% 30.2 0.0
16 07:45 Calm 10.00 Fair CLR 68 62.6 83% 30.2 0.0
16 07:25 Calm 10.00 Fair CLR 68 62.6 83% 30.19 0.0
16 07:00 Calm 10.00 Fair CLR 64.4 62.6 94% 30.19 0.0
16 06:45 Calm 10.00 Fair CLR 60.8 60.8 100% 30.18 0.0
16 06:25 Calm 7.00 Fair CLR 60.8 60.8 100% 30.17 0.0
16 06:05 Calm 10.00 Fair CLR 60.8 59 94% 30.17 0.0
16 05:45 Calm 10.00 Fair CLR 62.6 60.8 94% 30.17 0.0
16 05:25 Calm 10.00 Fair CLR 60.8 59 94% 30.16 0.0
16 05:05 Calm 10.00 Fair CLR 60.8 59 94% 30.15 0.0
16 04:45 Calm 10.00 Fair CLR 62.6 59 88% 30.15 0.0
16 04:25 Calm 10.00 Fair CLR 64.4 60.8 88% 30.14 0.0
16 04:05 Calm 10.00 Fair CLR 64.4 60.8 88% 30.14 0.0
16 03:45 Calm 10.00 Fair CLR 64.4 60.8 88% 30.14 0.0
16 03:25 Calm 10.00 Fair CLR 68 60.8 78% 30.14 0.0
16 03:05 Calm 10.00 Fair CLR 68 60.8 78% 30.13 0.0
16 02:45 Calm 10.00 Fair CLR 68 60.8 78% 30.13 0.0
16 02:25 E 3 10.00 Fair CLR 68 60.8 78% 30.13 0.0
16 02:05 Calm 10.00 Fair CLR 69.8 60.8 73% 30.14 0.0
16 01:45 SE 3 10.00 Fair CLR 69.8 60.8 73% 30.14 0.0
16 01:25 SE 5 10.00 Partly Cloudy SCT080 71.6 60.8 69% 30.14 0.0
16 01:05 SE 5 10.00 Partly Cloudy SCT080 71.6 60.8 69% 30.14 0.0
16 00:45 SE 6 10.00 Partly Cloudy SCT080 71.6 60.8 69% 30.14 0.0
16 00:25 SE 5 10.00 Fair CLR 71.6 60.8 69% 30.13 0.0
16 00:05 E 5 10.00 Fair CLR 71.6 60.8 69% 30.13 0.0
15 23:45 E 5 10.00 Fair CLR 71.6 59 65% 30.13 0.0
15 23:25 E 6 10.00 Fair CLR 71.6 59 65% 30.13 0.0
15 22:45 Calm 10.00 Fair CLR 69.8 57.2 64% 30.11 0.0
15 22:25 NE 3 10.00 Fair CLR 71.6 55.4 57% 30.11 0.0
15 22:05 N 3 10.00 Fair CLR 73.4 55.4 53% 30.11 0.0
15 21:45 N 3 10.00 Fair CLR 73.4 57.2 57% 30.1 0.0
15 21:25 Calm 10.00 Fair CLR 69.8 57.2 64% 30.09 0.0
15 21:05 Calm 10.00 Fair CLR 71.6 57.2 61% 30.07 0.0
15 20:45 Calm 10.00 Fair CLR 73.4 57.2 57% 30.06 0.0
15 20:25 E 3 10.00 Fair CLR 80.6 55.4 42% 81 30.06 0.0
15 20:05 Calm 10.00 Fair CLR 80.6 55.4 42% 81 30.05 0.0
15 19:45 Calm 10.00 Fair CLR 84.2 55.4 37% 83 30.05 0.0
15 19:25 N 6 10.00 Fair CLR 86 53.6 33% 84 30.04 0.0
15 19:05 N 8 10.00 Fair CLR 86 55.4 35% 85 30.04 0.0
15 18:45 N 7 10.00 Fair CLR 87.8 55.4 33% 86 30.04 0.0
15 18:25 N 7 10.00 Fair CLR 87.8 57.2 35% 87 30.04 0.0
15 18:05 N 5 10.00 Partly Cloudy SCT075 87.8 55.4 33% 86 30.03 0.0
15 17:45 NW 7 10.00 Fair CLR 87.8 57.2 35% 87 30.02 0.0
15 17:25 NW 6 10.00 Fair CLR 89.6 59 36% 89 30.02 0.0
15 17:05 Calm 10.00 Fair CLR 89.6 55.4 31% 88 30.02 0.0
15 16:45 N 5 10.00 Fair CLR 89.6 55.4 31% 88 30.02 0.0
15 16:25 NE 6 10.00 Fair CLR 89.6 55.4 31% 88 30.02 0.0
15 16:05 NE 3 10.00 Fair CLR 87.8 55.4 33% 86 30.02 0.0
15 15:45 N 8 10.00 Fair CLR 87.8 55.4 33% 86 30.03 0.0
15 15:25 N 7 10.00 Fair CLR 87.8 59 38% 87 30.03 0.0
15 15:05 NE 9 10.00 Fair CLR 89.6 59 36% 89 30.03 0.0
15 14:45 N 7 10.00 Fair CLR 87.8 59 38% 87 30.03 0.0
15 14:25 N 7 10.00 Fair CLR 87.8 59 38% 87 30.04 0.0
15 14:05 N 6 10.00 Fair CLR 86 59 40% 85 30.04 0.0
15 13:45 NE 9 10.00 Fair CLR 87.8 59 38% 87 30.04 0.0
15 13:25 NE 9 10.00 Fair CLR 86 59 40% 85 30.05 0.0
15 13:05 NE 9 G 16 10.00 Fair CLR 86 60.8 43% 86 30.06 0.0
15 12:45 N 8 10.00 Fair CLR 86 60.8 43% 86 30.06 0.0
15 12:25 N 8 10.00 Fair CLR 86 62.6 46% 87 30.06 0.0
15 12:05 N 12 10.00 Fair CLR 84.2 62.6 48% 85 30.06 0.0
15 11:45 N 8 10.00 Fair CLR 82.4 62.6 51% 83 30.05 0.0
15 11:25 N 6 10.00 Fair CLR 82.4 62.6 51% 83 30.05 0.0
15 11:05 N 8 10.00 Fair CLR 80.6 62.6 54% 82 30.05 0.0
15 10:45 NE 10 10.00 Fair CLR 80.6 64.4 58% 82 30.04 0.0
15 10:25 NE 9 10.00 Fair CLR 78.8 62.6 58% 80 30.04 0.0
15 10:05 N 9 10.00 Fair CLR 78.8 62.6 58% 80 30.04 0.0
15 09:45 N 8 10.00 Fair CLR 78.8 62.6 58% 80 30.04 0.0
15 09:25 N 7 10.00 Fair CLR 77 62.6 61% 79 30.03 0.0
15 09:05 N 8 10.00 Fair CLR 75.2 62.6 65% 77 30.03 0.0
15 08:40 N 6 10.00 Fair CLR 73.4 62.6 69% 30.04 0.0
15 08:25 N 6 10.00 Fair CLR 73.4 62.6 69% 30.03 0.0
15 08:05 N 5 10.00 Fair CLR 73.4 64.4 74% 30.02 0.0
15 07:45 N 5 10.00 Partly Cloudy SCT100 73.4 64.4 74% 30.01 0.0
15 07:25 N 5 10.00 Partly Cloudy SCT100 71.6 64.4 78% 30 0.0
15 07:05 Calm 10.00 Partly Cloudy SCT080 71.6 64.4 78% 29.99 0.0
15 06:45 N 5 10.00 Mostly Cloudy BKN070 71.6 64.4 78% 29.98 0.0
15 06:25 N 3 10.00 Mostly Cloudy BKN070 71.6 64.4 78% 29.99 0.0
15 06:05 N 5 10.00 Mostly Cloudy BKN070 71.6 64.4 78% 29.98 0.0
15 05:45 Calm 10.00 Overcast OVC070 69.8 64.4 83% 29.96 0.0
15 05:25 Calm 10.00 Mostly Cloudy BKN070 69.8 64.4 83% 29.95 0.0
15 05:05 Calm 10.00 Fair CLR 71.6 64.4 78% 29.94 0.0
15 04:45 NW 3 10.00 Mostly Cloudy SCT060 BKN075 BKN100 71.6 66.2 83% 29.94 0.0
15 04:25 N 3 10.00 Overcast BKN060 BKN075 OVC120 71.6 66.2 83% 29.93 0.0
15 04:05 N 3 10.00 Overcast BKN060 OVC085 69.8 66.2 88% 29.92 0.0
15 03:45 Calm 10.00 Mostly Cloudy BKN070 BKN085 69.8 64.4 83% 29.91 0.0
15 03:25 Calm 10.00 Mostly Cloudy BKN070 BKN085 71.6 64.4 78% 29.91 0.0
15 03:05 Calm 10.00 Partly Cloudy SCT095 SCT120 71.6 64.4 78% 29.91 0.0
15 02:20 Calm 10.00 Mostly Cloudy SCT070 BKN095 BKN110 69.8 64.4 83% 29.91 0.0
15 02:00 Calm 10.00 Partly Cloudy SCT070 69.8 64.4 83% 29.91 0.0
15 01:45 Calm 10.00 Partly Cloudy SCT100 69.8 64.4 83% 29.91 0.0
15 01:05 Calm 10.00 Fair CLR 71.6 64.4 78% 29.91 0.0
15 00:45 W 3 10.00 Fair CLR 73.4 66.2 78% 29.91 0.0
15 00:25 Calm 10.00 Fair CLR 71.6 64.4 78% 29.92 0.0
15 00:05 W 3 10.00 Fair CLR 69.8 66.2 88% 29.91 0.0
14 23:45 Calm 10.00 Fair CLR 69.8 66.2 88% 29.91 0.0
14 23:25 Calm 10.00 Fair CLR 71.6 66.2 83% 29.91 0.0
14 23:05 W 3 10.00 Fair CLR 77 66.2 69% 79 29.91 0.0
14 22:45 W 3 10.00 Fair CLR 78.8 64.4 61% 81 29.91 0.0
14 22:25 SW 3 10.00 Fair CLR 78.8 64.4 61% 81 29.91 0.0
14 22:05 W 3 10.00 Fair CLR 73.4 66.2 78% 29.91 0.0
14 21:45 Calm 10.00 Fair CLR 73.4 66.2 78% 29.9 0.0
14 21:25 Calm 10.00 Fair CLR 77 66.2 69% 79 29.88 0.0
14 21:05 Calm 10.00 Fair CLR 77 66.2 69% 79 29.88 0.0
14 20:45 Calm 7.00 Fair CLR 78.8 68 70% 81 29.88 0.0
14 20:25 Calm 7.00 Fair CLR 78.8 68 70% 81 29.88 0.0
14 20:05 Calm 7.00 Fair CLR 82.4 68 62% 85 29.88 0.0
Date Time (edt) Wind (mph) Vis. (mi.) Weather Sky Cond. Air Dwpt Max. Min. Relative Humidity Wind Chill (°F) Heat Index (°F) altimeter (in) sea level (mb) 1 hr 3 hr 6 hr
6 hour
Temperature (ºF) Pressure Precipitation (in)